Tracking 28514 objects as of 23-Feb-2024
HD Live streaming from Space Station
objects crossing your sky now

STARLINK-5644

Track STARLINK-5644 now!
10-day predictions
STARLINK-5644 is classified as:


NORAD ID: 55369
Int'l Code: 2023-013AQ
Perigee: 565.4 km
Apogee: 567.0 km
Inclination: 43.0 °
Period: 95.8 minutes
Semi major axis: 6937 km
RCS: Unknown
Launch date: January 26, 2023
Source: United States (US)
Launch site: AIR FORCE EASTERN TEST RANGE (AFETR)
Your satellite tracking list
Your tracking list is empty




NASA's NSSDC Master Catalog

Two Line Element Set (TLE):
1 55369U 23013AQ  24053.69895640  .00001849  00000-0  15187-3 0  9995
2 55369  43.0010  46.7728 0001142 267.6063  92.4648 15.02539725 59343
Source of the keplerian elements: AFSPC